53P/Van Biesbroeck (2003)

Japanese version
Home page
Total 6,336 html files since Dec. 4, 1995
Updated on November 20, 2005

---------------------------------------------------------------------

* Profile

* Pictures

* Orbital Elements

Epoch 2003 Oct. 8.0 TT = JDT 2452920.5  
T 2003 Oct. 9.43471 TT                                  Muraoka 
q   2.4153778            (2000.0)            P               Q
n   0.07873210     Peri.  134.09609     +0.22911715     +0.97159205
a   5.3913990      Node   149.00434     -0.92273425     +0.23618052
e   0.5519942      Incl.    6.61023     -0.30994651     +0.01508824
P  12.52
From 220 observations 1954-1993, mean residual 0".90.  Nongravitational
   parameters A1 = +0.57 +/- 0.05, A2 = -0.0205 +/- 0.0008.

* Finding Charts

* Magnitudes Graph

        m1 = 8.0 + 5 log d + 12.5 log r  [ ,0]  (             - 2003 Oct.  9)
        m1 = 9.0 + 5 log d + 10.0 log r  [0, ]  (2003 Oct.  9 -             )

---------------------------------------------------------------------

The orbital elements are calculated by Kenji Muraoka.
The charts are made with StellaNavigator Ver.2.0 for Windows (AstroArts / ASCII).
The magnitudes graphs are made with Comet for Windows.

---------------------------------------------------------------------

Copyright(C) 1995-2008 Seiichi Yoshida (comet@aerith.net). All rights reserved.